Regional Weather Roundup
Issued by NWS

Home | Current Version | Previous Version | Graphics & Text | Print | Product List | Glossary On
Versions: 1 2 3 4 5 6 7 8 9 10 11 12 13 14 15 16 17 18 19 20 21 22 23 24 25 26 27 28 29 30 31 32 33 34 35 36 37 38 39 40 41 42 43 44 45 46 47 48 49 50
000
ASUS43 KLOT 192104
RWRIL

ILLINOIS REGIONAL WEATHER ROUNDUP
NATIONAL WEATHER SERVICE CHICAGO/ROMEOVILLE IL
400 PM CDT THU OCT 19 2017

NOTE: "FAIR" INDICATES FEW OR NO CLOUDS BELOW 12,000 FEET WITH NO
SIGNIFICANT WEATHER AND/OR OBSTRUCTIONS TO VISIBILITY.

* THESE STATIONS ARE NOT UNDER NWS QUALITY CONTROL. THEY ALSO MAY NOT
  REPORT WEATHER SUCH AS PRECIPITATION OR FOG.

ILZ001-002-007-009-015-016-024-192200-
NORTHWEST ILLINOIS

CITY           SKY/WX    TMP DP  RH WIND       PRES   REMARKS
MOLINE         SUNNY     76  46  34 SE9       30.11S
STERLING*      SUNNY     73  33  23 S6          N/A
SAVANNA*       SUNNY     72  32  23 S6        30.12F
$$

ILZ003-004-008-010-011-017-018-192200-
NORTH CENTRAL ILLINOIS

CITY           SKY/WX    TMP DP  RH WIND       PRES   REMARKS
ROCKFORD       PTSUNNY   71  31  22 SE5       30.15S
FREEPORT*      SUNNY     70  31  24 SE9       30.16S
ROCHELLE*      SUNNY     72  31  22 S6        30.15S
DE KALB*       SUNNY     70  34  26 S7        30.17R
PERU*          SUNNY     72  34  24 SE7       30.15S
$$

ILZ005-006-012>014-019>023-192200-
NORTHEAST ILLINOIS

CITY           SKY/WX    TMP DP  RH WIND       PRES   REMARKS
CHICAGO-OHARE  PTSUNNY   67  24  19 E10       30.16S
CHICAGO-MIDWAY PTSUNNY   67  23  19 E6        30.17S
AURORA         SUNNY     71  30  21 SE5       30.16S
LANSING*       SUNNY     66  32  28 E5        30.18S
JOLIET*        SUNNY     72  33  23 CALM      30.16F
WAUKEGAN       MOSUNNY   62  26  25 SE8       30.16S
DUPAGE AIRPORT SUNNY     69  33  26 S5        30.16S
KANKAKEE*      SUNNY     73  40  31 CALM      30.16F
WHEELING       SUNNY     66  25  21 SE8       30.18R
MORRIS*        SUNNY     72  29  20 CALM      30.15F
NORTHERLY ISL    N/A     61  41  47 E5          N/A
$$

LMZ740>746-192200-
SOUTHERN LAKE MICHIGAN

STATION/POSITION SKY/WX   TEMP    WIND        PRES    VSBY  WAVE
                          AIR SEA DIR/SP/G                  HT/PER
                          (F)     (DEG/KT/KT) (MB)    (MI)  (FT/S)
SOUTHERN BUOY              59 61  260/  6/  6 1021.8          1/ 4
WILMETTE HARBOR            59 58  130/  8/ 10   N/A           1
HARRISON CRIB              61     120/  8/  8   N/A
BURNHAM HARBOR             61      80/  4/  7   N/A
CALUMET HARBOR             60      90/  5/  7 1021.4R
BURNS HARBOR               61      40/  5/  6 1022.7S
MICHIGAN CITY              62      10/  3/  3   N/A
MICHIGAN CITY 6N           60 59   30/  2/  4   N/A           1/ 4
ST. JOSEPH                 61 59  320/  2/  4 1022.4S         2/ 4
$$

ILZ025>027-034>036-040-047-049-050-058-095>099-192200-
WEST-CENTRAL ILLINOIS

CITY           SKY/WX    TMP DP  RH WIND       PRES   REMARKS
QUINCY         SUNNY     77  52  41 S9        30.11F
GALESBURG*     SUNNY     81  60  49 SE6       30.13S HX  81
MACOMB*        SUNNY     77  50  38 S7        30.13S
JACKSONVILLE*  SUNNY     77  51  40 S6        30.13S
PITTSFIELD*    SUNNY     77  52  41 S5        30.14S
$$

ILZ028>032-037-038-041>044-048-051>054-059>061-192200-
CENTRAL ILLINOIS

CITY           SKY/WX    TMP DP  RH WIND       PRES   REMARKS
PONTIAC        SUNNY     75  50  41 CALM      30.16S
BLOOMINGTON    SUNNY     75  53  46 S6        30.16S
DECATUR        SUNNY     77  51  40 SW9       30.15S
PEORIA         SUNNY     74  53  48 S6        30.13F
LACON*         SUNNY     75  50  42 E5        30.13S
LINCOLN*       SUNNY     79  54  41 S3        30.14S
SPRINGFIELD    SUNNY     79  53  40 S9        30.13F
TAYLORVILLE    SUNNY     78  50  37 SW8       30.15S
$$

ILZ033-039-045-046-055>057-062-063-192200-
EAST-CENTRAL ILLINOIS

CITY           SKY/WX    TMP DP  RH WIND       PRES   REMARKS
CHAMPAIGN      SUNNY     80  49  33 W10       30.15F
DANVILLE*      SUNNY     75  50  41 S5        30.14S
RANTOUL*       SUNNY     78  55  44 W3        30.15F
MATTOON        SUNNY     76  51  41 SW8       30.16S
PARIS*         SUNNY     77  52  41 SW8       30.17S
$$

ILZ079-100>102-192200-
SOUTHWEST ILLINOIS

CITY           SKY/WX    TMP DP  RH WIND       PRES   REMARKS
ALTON          SUNNY     75  54  46 SW8       30.15F
CAHOKIA*       SUNNY     82  46  28 SW7       30.13F HX  80
SPARTA*        SUNNY     79  49  35 S8        30.17S
$$

ILZ064>066-069>071-074>076-080>082-084>086-088>090-092>094-192200-
SOUTH-CENTRAL ILLINOIS

CITY           SKY/WX    TMP DP  RH WIND       PRES   REMARKS
CARBONDALE     SUNNY     77  51  40 SW9       30.17F
EFFINGHAM*     SUNNY     79  50  36 S6        30.18S
MARION         SUNNY     79  54  41 S9        30.18F
MT. VERNON     SUNNY     77  51  40 S8        30.17S
CENTRALIA*     SUNNY     81  50  33 S8        30.15S HX  80
SALEM*         SUNNY     81  45  28 SW8       30.16S HX  80
METROPOLIS*    SUNNY     78  51  40 S7        30.20S
$$

ILZ067-068-072-073-078-083-087-091-192200-
SOUTHEAST ILLINOIS

CITY           SKY/WX    TMP DP  RH WIND       PRES   REMARKS
LAWRENCEVILLE  SUNNY     77  52  41 SW6       30.18S
FLORA*         SUNNY     79  50  36 CALM      30.17S
FAIRFIELD*     SUNNY     78  49  36 SW5       30.16S
HARRISBURG*    SUNNY     78  53  42 S8        30.18S
ROBINSON*      SUNNY     76  51  40 S6        30.18S
CARMI*         SUNNY     79  50  36 SW6       30.17S
$$

ABBREVIATIONS USED IN REMARKS
   TC - TEMPERATURE IN CELSIUS
  WCI - WIND CHILL INDEX
   HX - HEAT INDEX
  VSB - VISIBILITY
$$




USA.gov is the U.S. government's official web portal to all federal, state and local government web resources and services.